SL-8 DEB, 21210

Orbit data source: Space-Track

SL-8 DEB, 21210 is space debris in LEO originally from a launch on Tue, 12 Feb 1991 UTC launched from the Plesetsk Missile And Space Complex (PKMTR). Debris objects in space refer to the collection of defunct objects orbiting the Earth. Examples of debris include non-operational satellites, rocket bodies, and fragments generated from explosions, collisions, or faulty payload assembly.

Loading next visibility...
Identifier
21210, 1991-009BD
Orbit
LEO
Country
Flag of CISCIS
Related business
Manufacturer
Unknown
Mission
Spacecraft
Bus & Motor
Unknown
Mass
Unknown
Launch date (UTC)
1991-02-12 (35 years ago)
Launch vehicle
Unknown
Launch site
Plesetsk Missile And Space Complex (PKMTR)
Object type
Payload
Rocket body
Debris
Shape & HBR
Unknown shape, 0.3 m
Radar Cross Section
Medium (>0.1 m² and <1 m²)

Expand to show TLE details & history
Last TLE update: 9 hours ago

TLE from 9 hours ago
0 SL-8 DEB
1 21210U 91009BD  26071.13133959 -.00000065  00000-0 -49866-3 0  9994
2 21210  74.0917  83.1919 0135843  86.2745 342.5130 12.17462821553367
Epoch: 2026-03-12T03:09Z
TLE epoch observation values (Epoch: 2026-03-12T03:09:07.740Z)
Latitude
63.42436°
Longitude
-99.33651°
Altitude
1,510.858 km
Speed
7.161 km/s
True Right ascension
07h 50m 55s
True Declination
63° 17' 59"
Sunlit
Object was in daylight at epoch
Visualization orbit readout
Latitude
Unknown
Longitude
Unknown
Altitude
Unknown
Speed
Unknown
Apparent Right ascension
Unknown
Apparent Declination
Unknown
Sunlit
N/A
Visualization observer readout
Local Sidereal Time
16:40:44
Azimuth
Unknown
Elevation
Unknown
Doppler factor
Unknown
Orbital elements
Apogee altitude
1,709.877 km
Perigee altitude
1,493.082 km
Semi-major axis
7,979.616 km
Eccentricity
0.01358
Inclination
74.0917°
RAAN
83.1919°
Arg. of periapsis
86.2745°
True anomaly
342.03755°
Mean anomaly
342.513°
Eccentric anomaly
342.27605°
Mean motion
3.04488 °/min
Orbital period
118.23 mins
BSTAR
-0.00049866
Loading maneuver chart data...
Computing Atmospheric mass density...
Loading historical data...
Loading historical data...
Loading historical data...
Loading historical data...
Loading historical data...
Loading historical data...
Loading historical data...

Documentation

Showing up to 5 results
|